Weather History for Savannah, GA

Change the Weather History Date:

Thursday, February 28, 2013

  Actual Average Record
Temperature  
Mean Temperature 53 °F 56 °F  
Max Temperature 63 °F 67 °F 86 °F (1962)
Min Temperature 43 °F 44 °F 20 °F (2002)
Degree Days  
Heating Degree Days 12 10  
Month to date heating degree days 329 343  
Since 1 July heating degree days 1222 1517  
Cooling Degree Days 0 0  
Month to date cooling degree days 2 7  
Year to date cooling degree days 28 10  
Growing Degree Days 3 (Base 50)    
Moisture  
Dew Point 34 °F    
Average Humidity 55    
Maximum Humidity 83    
Minimum Humidity 27    
Precipitation  
Precipitation 0.00 in 0.10 in 1.54 in (1966)
Month to date precipitation 9.75 2.79  
Year to date precipitation 10.30 6.48  
Snow  
Snow 0.00 in 0.00 in - ()
Month to date snowfall 0.0  
Since 1 July snowfall 0.0 0.3  
Snow Depth 0.00 in    
Sea Level Pressure  
Sea Level Pressure 29.89 in    
Wind  
Wind Speed 13 mph (West)    
Max Wind Speed 24 mph    
Max Gust Speed 31 mph    
Visibility 10 miles    
Events      
T = Trace of Precipitation, MM = Missing Value Source: NWS Daily Summary

Daily Weather History Graph

Daily Weather History Graph

Search for Another Location

Airport:

Trip Planner

Search our weather history database for the weather conditions in past years. The results will help you decide how hot, cold, wet, or windy it might be!

Date:

Astronomy

Feb. 28, 2013 Rise Set
Actual Time 6:53 AM EST 6:21 PM EST
Civil Twilight 6:28 AM EST 6:46 PM EST
Nautical Twilight 6:00 AM EST 7:14 PM EST
Astronomical Twilight 5:31 AM EST 7:43 PM EST
Moon 9:31 PM EST (2/28) 8:15 AM EST (2/28)
Length of Visible Light 12h 18m
Length of Day
11h 28m
Waning Gibbous, 91% of the Moon is Illuminated
Feb 28
Waning Gibbous
Mar 4
Last Quarter
Mar 11
New
Mar 19
First Quarter
Mar 27
Full

Hourly Weather History & Observations

Time (EST) Temp. Windchill Dew Point Humidity Pressure Visibility Wind Dir Wind Speed Gust Speed Precip Events Conditions
12:53 AM 48.9 °F - 39.9 °F 71% 29.89 in 10.0 mi West 10.4 mph - N/A   Clear
1:53 AM 48.0 °F - 39.0 °F 71% 29.88 in 10.0 mi West 8.1 mph - N/A   Clear
2:53 AM 45.0 °F 41.8 °F 37.9 °F 76% 29.87 in 10.0 mi West 5.8 mph - N/A   Clear
3:53 AM 43.0 °F 39.5 °F 37.9 °F 82% 29.87 in 10.0 mi WSW 5.8 mph - N/A   Clear
4:53 AM 45.0 °F 40.6 °F 39.0 °F 80% 29.89 in 10.0 mi West 8.1 mph - N/A   Clear
5:53 AM 43.0 °F 38.8 °F 37.9 °F 82% 29.90 in 10.0 mi WSW 6.9 mph - N/A   Clear
6:53 AM 45.0 °F 40.1 °F 39.0 °F 80% 29.91 in 10.0 mi WSW 9.2 mph - N/A   Clear
7:53 AM 46.9 °F - 39.9 °F 77% 29.92 in 10.0 mi West 11.5 mph - N/A   Clear
8:53 AM 51.1 °F - 37.0 °F 59% 29.93 in 10.0 mi West 15.0 mph 20.7 mph N/A   Partly Cloudy
9:53 AM 54.0 °F - 32.0 °F 43% 29.93 in 10.0 mi West 15.0 mph 24.2 mph N/A   Scattered Clouds
10:53 AM 57.0 °F - 30.9 °F 37% 29.91 in 10.0 mi West 17.3 mph - N/A   Scattered Clouds
11:53 AM 59.0 °F - 30.0 °F 33% 29.89 in 10.0 mi West 17.3 mph 27.6 mph N/A   Scattered Clouds
12:53 PM 60.1 °F - 30.0 °F 32% 29.87 in 10.0 mi West 16.1 mph 27.6 mph N/A   Scattered Clouds
1:53 PM 62.1 °F - 28.9 °F 29% 29.84 in 10.0 mi West 17.3 mph 26.5 mph N/A   Scattered Clouds
2:53 PM 63.0 °F - 30.0 °F 29% 29.83 in 10.0 mi West 18.4 mph 29.9 mph N/A   Scattered Clouds
3:53 PM 63.0 °F - 28.9 °F 28% 29.83 in 10.0 mi West 21.9 mph 26.5 mph N/A   Scattered Clouds
4:53 PM 61.0 °F - 28.9 °F 30% 29.83 in 10.0 mi West 20.7 mph 27.6 mph N/A   Scattered Clouds
5:53 PM 57.9 °F - 30.9 °F 36% 29.86 in 10.0 mi West 12.7 mph - N/A   Mostly Cloudy
6:53 PM 57.0 °F - 30.9 °F 37% 29.88 in 10.0 mi West 12.7 mph - N/A   Mostly Cloudy
7:53 PM 55.0 °F - 33.1 °F 43% 29.89 in 10.0 mi West 9.2 mph - N/A   Mostly Cloudy
8:53 PM 55.0 °F - 33.1 °F 43% 29.90 in 10.0 mi WNW 6.9 mph - N/A   Mostly Cloudy
9:53 PM 53.1 °F - 33.1 °F 47% 29.91 in 10.0 mi NW 8.1 mph - N/A   Overcast
10:53 PM 52.0 °F - 30.9 °F 45% 29.93 in 10.0 mi NW 13.8 mph - N/A   Overcast
11:53 PM 50.0 °F - 30.9 °F 48% 29.92 in 10.0 mi NW 15.0 mph - N/A   Overcast